Regional Weather Roundup
Issued by NWS

Home | Current Version | Previous Version | Text Only | Print | Product List | Glossary Off
Versions: 1 2 3 4 5 6 7 8 9 10 11 12 13 14 15 16 17 18 19 20 21 22 23 24 25 26 27 28 29 30 31 32 33 34 35 36 37 38 39 40 41 42 43 44 45 46 47 48 49 50

000
ASUS43 KLOT 191603
RWRIL

ILLINOIS REGIONAL WEATHER ROUNDUP
NATIONAL WEATHER SERVICE CHICAGO/ROMEOVILLE IL
1000 AM CST FRI JAN 19 2018

NOTE: "FAIR" INDICATES FEW OR NO CLOUDS BELOW 12,000 FEET WITH NO
SIGNIFICANT WEATHER AND/OR OBSTRUCTIONS TO VISIBILITY.

* THESE STATIONS ARE NOT UNDER NWS QUALITY CONTROL. THEY ALSO MAY NOT
  REPORT WEATHER SUCH AS PRECIPITATION OR FOG.

ILZ001-002-007-009-015-016-024-191700-
NORTHWEST ILLINOIS

CITY           SKY/WX    TMP DP  RH WIND       PRES   REMARKS
MOLINE         FAIR      36  22  56 SW12G18   29.86F WCI  28
STERLING*      FAIR      34  23  64 SW8       29.88F WCI  27
SAVANNA*       FAIR      34  23  63 SW9       29.86S WCI  27
$$

ILZ003-004-008-010-011-017-018-191700-
NORTH CENTRAL ILLINOIS

CITY           SKY/WX    TMP DP  RH WIND       PRES   REMARKS
ROCKFORD       CLOUDY    32  22  66 S10       29.88S WCI  24
FREEPORT*      FAIR      30  22  73 SW16      29.86S WCI  18
ROCHELLE*      FAIR      33  25  73 SW13      29.89S WCI  23
DE KALB*       FAIR      31  23  71 SW15      29.89S WCI  21
PERU*          FAIR      34  20  56 SW15G21   29.92S WCI  24
$$

ILZ005-006-012>014-019>023-191700-
NORTHEAST ILLINOIS

CITY           SKY/WX    TMP DP  RH WIND       PRES   REMARKS
CHICAGO-OHARE  PTSUNNY   33  19  56 SW16G24   29.89S WCI  23
CHICAGO-MIDWAY PTSUNNY   34  20  56 SW13      29.91F WCI  25
AURORA         FAIR      31  21  66 S10       29.91R WCI  22
LANSING*       FAIR      30  21  70 SW18G24   29.95S WCI  17
JOLIET*        FAIR      33  20  58 SW10      29.94S WCI  25
WAUKEGAN       FAIR      35  22  58 SW18G26   29.85S WCI  24
DUPAGE AIRPORT FAIR      32  21  64 SW21      29.90R WCI  20
KANKAKEE*      FAIR     N/A N/A N/A SW18      29.98F
WHEELING       FAIR      35  21  56 SW13      29.90S WCI  26
MORRIS*        FAIR      32  21  63 SW17      29.92F WCI  21
ROMEOVILLE*    FAIR      32  21  63 SW18G24   29.92S WCI  20
NORTHERLY ISL    N/A     33  18  54 SW14        N/A  WCI  23
$$

LMZ740>746-191700-
SOUTHERN LAKE MICHIGAN

STATION/POSITION SKY/WX   TEMP    WIND        PRES    VSBY  WAVE
                          AIR SEA DIR/SP/G                  HT/PER
                          (F)     (DEG/KT/KT) (MB)    (MI)  (FT/S)
HARRISON CRIB              34     200/ 18/ 22   N/A
BURNHAM HARBOR             33     220/  7/ 12   N/A
CALUMET HARBOR             31     200/ 12/ 18 1012.5F
BURNS HARBOR               31     200/ 17/ 21 1014.2F
MICHIGAN CITY              31     180/ 16/ 19   N/A
$$

ILZ025>027-034>036-040-047-049-050-058-095>099-191700-
WEST-CENTRAL ILLINOIS

CITY           SKY/WX    TMP DP  RH WIND       PRES   REMARKS
QUINCY           N/A     37  19  48 MISG      29.96S
GALESBURG*     FAIR      34  24  67 S18       29.91F WCI  23
MACOMB*        CLOUDY    36  22  56 SW17G24   29.95F WCI  26
JACKSONVILLE*  SUNNY     37  16  43 S16       30.01S WCI  27
PITTSFIELD*    CLOUDY    39  20  45 S12G17    30.01S WCI  32
$$

ILZ028>032-037-038-041>044-048-051>054-059>061-191700-
CENTRAL ILLINOIS

CITY           SKY/WX    TMP DP  RH WIND       PRES   REMARKS
PONTIAC        FAIR      33  22  64 S18       29.95F WCI  21
BLOOMINGTON    FAIR      31  21  66 SW23      29.96F WCI  18
DECATUR        FAIR      32  21  64 SW22      30.03F WCI  19
PEORIA         FAIR      33  21  61 S15       29.95F WCI  23
LACON*         FAIR      34  19  54 SW15      29.93R WCI  24
LINCOLN*       FAIR      35  22  60 S7        30.00F WCI  29
SPRINGFIELD    FAIR      37  19  48 SW14G22   30.02S WCI  28
TAYLORVILLE    FAIR      34  20  56 SW17G23   30.05S WCI  23
$$

ILZ033-039-045-046-055>057-062-063-191700-
EAST-CENTRAL ILLINOIS

CITY           SKY/WX    TMP DP  RH WIND       PRES   REMARKS
CHAMPAIGN      FAIR      29  21  72 S16       30.03S WCI  17
DANVILLE*      FAIR      28  18  66 SW15      30.03R WCI  16
RANTOUL*       FAIR      32  21  65 SW16      30.02F WCI  21
MATTOON        FAIR      28  18  66 S12       30.08R WCI  18
PARIS*         FAIR      29  20  68 S16       30.10R WCI  18
$$

ILZ079-100>102-191700-
SOUTHWEST ILLINOIS

CITY           SKY/WX    TMP DP  RH WIND       PRES   REMARKS
ALTON          MOSUNNY   37  19  48 S13G18    30.09R WCI  29
BELLEVILLE     FAIR      37  17  45 SW12      30.10S WCI  29
CAHOKIA*       FAIR      38  14  37 SW9       30.10R WCI  31
SPARTA*        FAIR      33  21  61 S10       30.14F WCI  24
$$

ILZ064>066-069>071-074>076-080>082-084>086-088>090-092>094-191700-
SOUTH-CENTRAL ILLINOIS

CITY           SKY/WX    TMP DP  RH WIND       PRES   REMARKS
CARBONDALE     FAIR      32  20  61 S12       30.19R WCI  23
CAIRO*         FAIR      26  17  68 S7        30.25R WCI  19
EFFINGHAM*     FAIR      33  20  58 S9        30.12S WCI  26
MARION         SUNNY     30  18  59 S12       30.20S WCI  21
MT. VERNON     FAIR      31  22  69 S13       30.15F WCI  21
CENTRALIA*     FAIR      34  22  62 S14       30.12S WCI  24
SALEM*         FAIR      34  19  54 S13       30.12S WCI  25
METROPOLIS*    FAIR      31  17  56 SW10      30.26R WCI  22
$$

ILZ067-068-072-073-078-083-087-091-191700-
SOUTHEAST ILLINOIS

CITY           SKY/WX    TMP DP  RH WIND       PRES   REMARKS
LAWRENCEVILLE  FAIR      25  18  74 S12       30.16F WCI  14
FLORA*         FAIR      31  20  65 S13       30.14S WCI  21
FAIRFIELD*     FAIR      28  19  71 S8        30.15F WCI  19
HARRISBURG*    FAIR      30  19  65 SW10      30.21S WCI  21
ROBINSON*      FAIR      28  18  64 S10       30.14F WCI  19
CARMI*         FAIR      27  19  72 S14       30.19S WCI  16
$$

ABBREVIATIONS USED IN REMARKS
   TC - TEMPERATURE IN CELSIUS
  WCI - WIND CHILL INDEX
   HX - HEAT INDEX
  VSB - VISIBILITY
$$




USA.gov is the U.S. government's official web portal to all federal, state and local government web resources and services.